User: anonymous   Login
Location: Athabasca
(54.7194°N, 113.2858°W)
Time: 22:59:00
(UTC+00:00)
Language:

JY1SAT - Orbit

View from above orbital plane
View from above orbital plane
View from above satellite
View from above satellite

Ground track
Ground track

The orbit data is extracted from the following two-line orbital elements,

1 43803U 18099AX  23333.40281494  .00009930  00000-0  73448-3 0  9991
2 43803  97.5492  31.8563 0009766 268.4396  91.5711 15.03343433272495
Epoch (UTC): 29 November 2023 09:40:03
Eccentricity: 0.0009766
inclination: 97.5492°
perigee height: 550 km
apogee height: 563 km
right ascension of ascending node: 31.8563°
argument of perigee: 268.4396°
revolutions per day: 15.03343433
mean anomaly at epoch: 91.5711°
orbit number at epoch: 27249

The dashed part of the orbit path shows where the satellite is in the earth's shadow,  

DLR